Regional Weather Roundup
Issued by NWS

Home | Current Version | Previous Version | Graphics & Text | Print | Product List | Glossary On
Versions: 1 2 3 4 5 6 7 8 9 10 11 12 13 14 15 16 17 18 19 20 21 22 23 24 25 26 27 28 29 30 31 32 33 34 35 36 37 38 39 40 41 42 43 44 45 46 47 48 49 50
412
ASUS45 KBOU 282007
RWRCO

WEATHER ROUNDUP FOR COLORADO
NATIONAL WEATHER SERVICE DENVER/BOULDER CO
200 PM MDT WED JUN 28 2017

NOTE: "FAIR" INDICATES FEW OR NO CLOUDS BELOW 12000 FEET WITH NO
SIGNIFICANT WEATHER AND/OR OBSTRUCTIONS TO VISIBILITY.

COZ001>005-013-030-031-282100-
...NORTHWEST COLORADO...

CITY           SKY/WX    TMP DP  RH WIND       PRES   REMARKS
CRAIG          FAIR      87  25  10 W10       29.93F
HAYDEN         FAIR      79  27  14 W10       29.97F
MEEKER         FAIR      81  21  11 SW16G44   29.96S
RABBIT EARS PA FAIR      61  32  33 NW6G16    30.28F
STEAMBOAT SPGS FAIR      78  31  18 W3        30.00F
WALDEN         FAIR      75  23  14 W18G25    30.10F
$$

COZ006>008-011-282100-
...WEST CENTRAL VALLEYS...

CITY           SKY/WX    TMP DP  RH WIND       PRES   REMARKS
GRAND JUNCTION FAIR      91  25   9 MISG      29.85F
MONTROSE       FAIR      89  20   8 W9G22     29.94F
EAGLE          MOSUNNY   82  28  14 S18G29    29.98F
RIFLE          FAIR      91  17   6 W17G31    29.89F
DELTA          FAIR      96  21   6 SW12G25   29.88F
NUCLA          FAIR      90  18   7 W17       30.00F
$$

COZ017>023-064>068-282100-
...SOUTHWEST COLORADO...

CITY           SKY/WX    TMP DP  RH WIND       PRES   REMARKS
DURANGO        FAIR      84  15   7 W12G21    30.07F
CORTEZ         FAIR      89  10   5 SW12G17   30.01F
PAGOSA SPRINGS FAIR      80  13   8 SW12G18   30.15F
TELLURIDE      FAIR      73  19  13 SW8G22    30.25F
WOLF CREEK PAS FAIR      57  21  24 SW17G36   30.49F
$$

COZ009-010-012-014-032>034-037-058>063-282100-
...CENTRAL COLORADO...

CITY           SKY/WX    TMP DP  RH WIND       PRES   REMARKS
ASPEN          FAIR      80  16   9 SW15G29   30.07S
BUENA VISTA    FAIR      78  17  10 W16G25    30.07F
COPPER MTN     FAIR      63  14  15 W24G32    30.39F
BERTHOUD PASS  PTSUNNY   52  37  58 W24G44    30.43R
COTTONWOOD PAS FAIR      73   7   7 W20G36    30.23F
GUNNISON       FAIR      78  25  14 W21G29    30.08F
KREMMLING      FAIR      81  21  11 NW16G26   30.02F
LEADVILLE      FAIR      70  14  11 W18G26    30.21F
MONARCH PASS   FAIR      61  19  20 W36G47    30.50F
SALIDA         FAIR      86  15   7 W20G26    30.11F
SUNLIGHT       FAIR      70  23  17 SW7G26    30.34S
WILKERSON PASS FAIR      66  12  12 SW9G23    30.35F
$$

COZ069>075-282100-
...SAN LUIS VALLEY/SANGRE DE CRISTO MOUNTAINS...

CITY           SKY/WX    TMP DP  RH WIND       PRES   REMARKS
ALAMOSA        FAIR      85  15   7 SW16G26   30.08S
DEL NORTE      FAIR      83  20   9 SW21G28   30.09F
LA VETA PASS   FAIR      75  23  14 MISG      30.39F
SAGUACHE       FAIR      81  23  12 S8        30.08F
$$

COZ035-036-038>040-282100-
...NORTHERN COLORADO FRONT RANGE...

CITY           SKY/WX    TMP DP  RH WIND       PRES   REMARKS
DENVER INTL AP PTSUNNY   87  35  15 W18G26    29.87F
DMNS CITY PARK   N/A     86  35  16 E3G13     29.85F
AURORA         PTSUNNY   83  35  18 S5        29.89F
FRONT RANGE AP PTSUNNY   84  34  16 N9        29.91S
ERIE MUNI ARPT FAIR      83  37  19 E6        29.86F
BOULDER MUN AP FAIR      82  41  23 S3        29.87F
CENTENNIAL     PTSUNNY   82  36  19 N14       29.90S
BROOMFIELD     FAIR      84  37  18 SE7       29.90F
FORT COLLINS   FAIR      84  42  22 SE7G16    29.87F
LONGMONT       FAIR      86  38  18 SE6       29.87F
$$

COZ041-046-047-076>085-087-088-282100-
...PIKES PEAK/PALMER DIVIDE AND SOUTHERN FOOTHILLS...

CITY           SKY/WX    TMP DP  RH WIND       PRES   REMARKS
COLO. SPRINGS  FAIR      86  34  15 S24G33    29.95F
A. F. ACADEMY  FAIR      81  35  19 SE20G32   29.94F
SCHRIEVER AFB  FAIR      83  34  17 S22G30    29.96F
CHEYENNE MTN   FAIR      78  35  21 SE21G28   29.95F
ELLICOTT       FAIR     N/A N/A N/A S18       29.95F
FALCON           N/A     83  30  14 S22G30    30.01F
FORT CARSON    FAIR      86  38  18 S20G25    29.93F
LIMON          FAIR      87  37  17 S16G25    29.91F
MONUMENT HILL  FAIR      79  34  19 S23G31    30.00F
CANON CITY     SUNNY     88  43  20 E14       29.90F
WALSENBURG     FAIR      90  36  14 SE15G21   29.93F
TRINIDAD       FAIR      88  40  18 E10       29.93F
$$

COZ042>045-048>051-090-091-282100-
...NORTHEAST COLORADO...

CITY           SKY/WX    TMP DP  RH WIND       PRES   REMARKS
GREELEY ARPT   FAIR      87  42  20 SE13      29.85F
AKRON          FAIR      84  37  18 VRB3      29.87F
BURLINGTON     FAIR      88  44  21 NE7       29.86F
WRAY           FAIR      86  43  22 E6        29.82F
YUMA           FAIR      81  43  26 CALM      29.83F
STERLING       FAIR      88  46  23 SE7       29.80F
HOLYOKE        NOT AVBL
FORT MORGAN    FAIR      86  36  17 SE7       29.86F
$$

COZ086-089-092>099-282100-
...SOUTHEAST COLORADO...

CITY           SKY/WX    TMP DP  RH WIND       PRES   REMARKS
PUEBLO         FAIR      90  40  17 SE17      29.85F
LA JUNTA       FAIR      90  43  19 SE10      29.85F
LAMAR          FAIR      93  42  17 VRB5      29.80F
SPRINGFIELD      N/A     89  47  23 MISG      29.86F
$$




USA.gov is the U.S. government's official web portal to all federal, state and local government web resources and services.